Location: Rio Negrinho
(26.2394°S, 49.4999°W)
Time: 12:47:32
(UTC+00:00)

NOAA 6 - Pass Details

Date: 10 October 2020
Orbit: 773 x 786 km, 98.7° (Epoch: 26 October)

Event Time Altitude Azimuth Distance (km) Brightness Sun altitude
Rises 07:07:51 0° 63° (ENE) 3,255 7.9 -22.5°
Reaches altitude 10° 07:12:03 10° 97° (E) 2,336 7.6 -21.6°
Maximum altitude 07:13:28 11° 113° (ESE) 2,260 7.6 -21.3°
Drops below altitude 10° 07:14:53 10° 130° (SE) 2,341 7.5 -21.0°
Sets 07:19:06 0° 163° (SSE) 3,276 7.8 -20.1°
